Find Local Weather

World > North America > United States > New York

Middletown, New York Regional Weather

Lat: 41.45N, Lon: 74.42W
Wx Zone: NYZ067
Feedback
Expires:201812170500;;911552
ASUS41 KOKX 170414
RWROKX

Regional Weather Roundup
National Weather Service New York NY
1100 PM EST SUN DEC 16 2018

Note: "FAIR" indicates few or no clouds below 12,000 feet with no
significant weather and/or obstructions to visibility.


NYZ052-065-067-170500-
Hudson Valley
  
CITY           SKY/WX    TMP DP  RH WIND       PRES   REMARKS
White Plains   LGT RAIN  35  33  92 N16       29.75F FOG     WCI  25  
Larchmont Harb   N/A     36 N/A N/A NW14        N/A  WCI  27          
Croton On Huds   N/A     36 N/A N/A N7G15       N/A  WCI  30          
Somers           N/A     34  32  93 N8          N/A  WCI  27          
Brewster         N/A     32  32 100 N12         N/A  WCI  23          
Newburgh       CLOUDY    36  36 100 N8        29.82F WCI  29          
Montgomery     CLOUDY    36  34  92 CALM      29.81F                  
Otisville        N/A     36  34  93 NE2         N/A                   
Warwick          N/A     36  34  93 W2          N/A                   
Suffern          N/A     36  34  93 N10         N/A  WCI  28          
Poughkeepsie   MIX PCPN  35  32  88 N9        29.81F WCI  28          
Albany         LGT SNOW  34  31  88 N6        29.88F FOG     WCI  29  
$$
 

SKY/WX - Weather  TMP - Temperature  DP - Dew Point  RH - Relative Humidity
WIND - Wind Direction/Speed PRES - Barometric Pressure